Location: Bu�n Treun
(12.1333°N, 108.3167°E)
Time: 12:59:42
(UTC+00:00)

ARIANE 44LP R/B - Pass Details

Date: 13 July 2020
Orbit: 303 x 27538 km, 6.8° (Epoch: 06 August)

Event Time Altitude Azimuth Distance (km) Brightness Sun altitude
Exits shadow 21:53:41 11° 235° (SW) 1,492 3.9 -8.8°
Maximum altitude 21:55:44 21° 184° (S) 806 2.9 -8.4°
Drops below altitude 10° 21:57:26 10° 126° (SE) 1,153 4.4 -8.0°
Sets 21:59:24 0° 106° (ESE) 2,098 6.2 -7.6°
